Location: Cactus School
(34.5700°N, 118.0931°W)
Time: 08:56:28
(UTC-07:00)

Vanguard 1 Rocket - Pass Details

Date: 17 April 2024
Orbit: 650 x 4220 km, 34.3° (Epoch: 22 May)

Event Time Altitude Azimuth Distance (km) Brightness Sun altitude
Rises 22:14:55 0° 274° (W) 3,646 11.2 -31.2°
Reaches altitude 10° 22:16:58 10° 274° (W) 2,930 10.5 -31.5°
Maximum altitude 22:24:11 87° 186° (S) 1,619 8.4 -32.6°
Enters shadow 22:26:45 59° 101° (ESE) 2,046 8.7 -32.9°
